This demonstration page uses our WeatherBlox Daily Observations layout. Learn more.

Left ArrowRight Arrow

Hourly Observations for November 19, 2022

Temp ( °F °C ) Dew Point ( °F °C ) Humidity (%) Winds ( mph kmh ) Pressure ( in mb ) Visibility ( mi km ) Precip ( " mm )
12:55 am 00:55 Clear 23 -5.1 0 -17.6 37 37 SW 7 11 30.18 1022 10 16 0.00 0.00
1:55 am 01:55 Clear 25 -4.1 0 -17.7 34 34 W 13 20 30.18 1022 10 16 0.00 0.00
2:55 am 02:55 Cloudy 25 -3.9 1 -17.1 35 35 WNW 9 15 30.18 1022 10 16 0.00 0.00
3:55 am 03:55 Cloudy 27 -2.7 1 -17.5 31 31 W 14 22 30.18 1022 10 16 0.00 0.00
4:55 am 04:55 Partly Cloudy 28 -2.5 4 -15.6 36 36 NW 16 26 30.19 1023 10 16 0.00 0.00
5:55 am 05:55 Clear 26 -3.6 10 -12.5 50 50 NW 17 28 30.25 1024 10 16 0.00 0.00
6:55 am 06:55 Clear 24 -4.4 8 -13.3 50 50 NW 23 37 30.28 1025 10 16 0.00 0.00
7:55 am 07:55 Sunny 23 -5 8 -13.1 53 53 NW 17 28 30.32 1027 10 16 0.00 0.00
8:55 am 08:55 Cloudy 25 -3.9 10 -12.3 52 52 NW 16 26 30.35 1028 10 16 0.00 0.00
9:55 am 09:55 Partly Cloudy 27 -2.7 10 -12.2 48 48 NNW 23 37 30.36 1028 10 16 0.00 0.00
10:55 am 10:55 Cloudy 28 -2.5 6 -14.6 39 39 NW 18 30 30.39 1029 10 16 0.00 0.00
11:55 am 11:55 Cloudy 28 -2.2 6 -14.6 38 38 NNW 22 35 30.41 1030 10 16 0.00 0.00
12:55 pm 12:55 Cloudy 29 -1.6 4 -15.4 34 34 NW 21 33 30.41 1030 10 16 0.00 0.00
1:55 pm 13:55 Cloudy 31 -0.5 5 -15.2 32 32 WNW 23 37 30.39 1029 10 16 0.00 0.00
2:55 pm 14:55 Mostly Cloudy 30 -1.3 4 -15.5 33 33 WNW 20 31 30.41 1030 10 16 0.00 0.00
3:55 pm 15:55 Sunny 30 -1 3 -16 31 31 NW 14 22 30.41 1030 10 16 0.00 0.00
4:55 pm 16:55 Sunny 28 -2 3 -16.2 33 33 WNW 10 17 30.42 1030 10 16 0.00 0.00
5:55 pm 17:55 Clear 26 -3.6 3 -16.2 37 37 Calm 30.44 1031 10 16 0.00 0.00
6:55 pm 18:55 Clear 24 -4.3 3 -15.9 40 40 W 5 7 30.45 1031 10 16 0.00 0.00
7:55 pm 19:55 Clear 23 -4.8 3 -16.1 41 41 NW 3 6 30.45 1031 10 16 0.00 0.00
8:55 pm 20:55 Clear 21 -6.1 4 -15.6 47 47 Calm 30.45 1031 10 16 0.00 0.00
9:55 pm 21:55 Clear 19 -7.2 4 -15.6 51 51 Calm 30.44 1031 10 16 0.00 0.00
10:55 pm 22:55 Clear 17 -8.6 5 -15 60 60 Calm 30.43 1031 10 16 0.00 0.00
11:55 pm 23:55 Clear 16 -8.9 4 -15.5 59 59 Calm 30.43 1031 10 16 0.00 0.00

Powered by AerisWeather